Date String (YYYY-MM-DD hh:mm:ss) UTC,Instrument flags,absolute air pressure of the measurement (hPa),sample flow rate (lpm),inlet stack bypass flow (lpm),air temperature of the measurement (°C),ambient temperature measured by the external sensor (°C),aerosol sample conditioner tube jacket temperature (°C),OPC LED temperature (°C),internal box temperature (°C),relative humidity of the measurement (%),span deviation,mass concentration of particles derived from Lorenz-Mie calculation of OPC scattering (μg/m³),mass concentration of particles derived from Lorenz-Mie calculation of OPC scattering (μg/m³),mass concentration of particles derived from Lorenz-Mie calculation of OPC scattering (μg/m³)
DateTimeUTC,F1_M11,P_M11,Q1_M11,Q2_M11,T1_M11,T2_M11,T3_M11,T4_M11,T5_M11,U1_M11,ZSPAN_M11,X0_M11,X2_M11,X1_M11
2023-09-06 19:00:00,SystemResetWarning,0833.0,5.01,000.00,027.8,024.6,000.0,036.1,029.1,29.9,0002.2,0029.46,0019.53,0018.28
2023-09-06 19:01:00,SystemResetWarning,0833.1,4.99,000.00,027.7,025.0,000.0,036.1,029.2,30.0,0002.3,0030.12,0019.59,0018.32
2023-09-06 19:02:00,SystemResetWarning,0833.1,5.00,000.00,027.8,025.5,000.0,036.2,029.3,30.2,0002.2,0030.83,0019.62,0018.35
2023-09-06 19:03:00,SystemResetWarning,0833.2,5.00,000.00,027.8,025.8,000.0,036.2,029.4,30.0,0002.2,0030.85,0019.61,0018.38
2023-09-06 19:04:00,SystemResetWarning,0833.0,5.01,000.00,027.8,026.2,000.0,036.2,029.5,29.7,0002.2,0030.89,0019.71,0018.44
2023-09-06 19:05:00,SystemResetWarning,0833.0,5.00,000.00,027.9,026.4,000.0,036.2,029.6,29.9,0002.3,0031.19,0019.81,0018.52
2023-09-06 19:06:00,SystemResetWarning,0833.0,5.00,000.00,027.9,026.7,000.0,036.2,029.7,29.8,0002.3,0031.37,0019.90,0018.64
2023-09-06 19:07:00,SystemResetWarning,0833.3,5.00,000.00,028.0,026.9,000.0,036.3,029.8,29.4,0002.4,0032.50,0019.94,0018.68
2023-09-06 19:08:00,SystemResetWarning,0833.1,5.00,000.00,028.0,026.7,000.0,036.3,029.7,29.2,0002.4,0032.57,0019.95,0018.69
2023-09-06 19:09:00,SystemResetWarning,0833.1,4.99,000.00,028.0,025.2,000.0,036.2,029.3,29.2,0002.4,0032.56,0019.94,0018.71
2023-09-06 19:10:00,SystemResetWarning,0833.0,5.01,000.00,027.9,024.2,000.0,036.1,029.1,29.7,0002.3,0033.05,0019.99,0018.77
2023-09-06 19:11:00,SystemResetWarning,0833.2,5.01,000.00,027.8,024.3,000.0,036.1,029.1,29.5,0002.3,0032.85,0019.93,0018.75
2023-09-06 19:12:00,SystemResetWarning,0833.2,4.99,000.00,027.7,024.6,000.0,036.1,029.1,29.4,0002.3,0032.97,0019.89,0018.72
2023-09-06 19:13:00,SystemResetWarning,0833.0,4.99,000.00,027.7,025.0,000.0,036.1,029.2,29.5,0002.3,0033.08,0019.85,0018.67
2023-09-06 19:14:00,SystemResetWarning,0833.2,5.00,000.00,027.7,025.4,000.0,036.1,029.3,29.1,0002.2,0033.90,0019.83,0018.60
2023-09-06 19:15:00,SystemResetWarning,0833.1,5.01,000.00,027.8,025.8,000.0,036.1,029.4,29.6,0002.2,0034.43,0019.79,0018.56
2023-09-06 19:16:00,SystemResetWarning,0833.2,5.00,000.00,027.8,026.2,000.0,036.2,029.5,29.2,0002.2,0036.15,0019.73,0018.52
2023-09-06 19:17:00,SystemResetWarning,0833.1,5.00,000.00,027.8,026.4,000.0,036.2,029.6,28.7,0002.2,0036.68,0019.69,0018.48
2023-09-06 19:18:00,SystemResetWarning,0833.1,5.00,000.00,027.9,026.7,000.0,036.2,029.7,28.8,0002.1,0036.11,0019.66,0018.42
2023-09-06 19:19:00,SystemResetWarning,0833.0,5.00,000.00,027.9,026.9,000.0,036.2,029.7,28.7,0002.1,0035.90,0019.61,0018.35
2023-09-06 19:20:00,SystemResetWarning,0833.0,4.99,000.00,028.0,026.9,000.0,036.2,029.8,28.0,0002.0,0035.60,0019.56,0018.26
2023-09-06 19:21:00,SystemResetWarning,0833.0,4.98,000.00,028.0,025.8,000.0,036.2,029.4,27.6,0002.0,0035.00,0019.49,0018.18
2023-09-06 19:22:00,SystemResetWarning,0833.2,5.01,000.00,027.9,024.4,000.0,036.1,029.1,27.7,0002.0,0034.88,0019.45,0018.12
2023-09-06 19:23:00,SystemResetWarning,0833.3,5.01,000.00,027.8,024.3,000.0,036.1,029.0,27.6,0002.0,0034.10,0019.43,0018.08
2023-09-06 19:24:00,SystemResetWarning,0832.8,5.00,000.00,027.7,024.5,000.0,036.1,029.0,28.6,0002.1,0033.78,0019.40,0018.04
2023-09-06 19:25:00,SystemResetWarning,0833.2,4.99,000.00,027.7,024.9,000.0,036.1,029.1,28.0,0002.2,0032.66,0019.36,0018.00
2023-09-06 19:26:00,SystemResetWarning,0833.3,5.00,000.00,027.7,025.4,000.0,036.1,029.2,27.7,0002.1,0032.60,0019.32,0017.96
2023-09-06 19:27:00,SystemResetWarning,0833.1,5.01,000.00,027.7,025.8,000.0,036.1,029.4,27.9,0002.1,0030.44,0019.28,0017.92
2023-09-06 19:28:00,SystemResetWarning,0833.4,5.00,000.00,027.8,026.1,000.0,036.1,029.4,28.6,0002.2,0029.91,0019.23,0017.88
2023-09-06 19:29:00,SystemResetWarning,0833.3,5.00,000.00,027.8,026.4,000.0,036.2,029.5,28.7,0002.3,0029.78,0019.18,0017.83
2023-09-06 19:30:00,SystemResetWarning,0833.4,5.00,000.00,027.9,026.6,000.0,036.2,029.6,28.8,0002.5,0029.55,0019.12,0017.77
2023-09-06 19:31:00,SystemResetWarning,0833.2,5.00,000.00,027.9,026.9,000.0,036.2,029.7,28.9,0002.4,0029.81,0019.08,0017.75
2023-09-06 19:32:00,SystemResetWarning,0833.0,5.00,000.00,028.0,026.7,000.0,036.2,029.7,28.7,0002.4,0030.03,0019.01,0017.70
2023-09-06 19:33:00,SystemResetWarning,0832.9,4.99,000.00,027.9,025.3,000.0,036.2,029.3,28.3,0002.4,0029.93,0018.94,0017.61
2023-09-06 19:34:00,SystemResetWarning,0832.7,5.01,000.00,027.8,024.3,000.0,036.1,029.0,28.5,0002.2,0029.54,0018.86,0017.53
2023-09-06 19:35:00,SystemResetWarning,0832.8,5.01,000.00,027.7,024.3,000.0,036.1,029.1,28.7,0002.2,0029.04,0018.77,0017.46
2023-09-06 19:36:00,SystemResetWarning,0832.7,5.00,000.00,027.7,024.7,000.0,036.1,029.0,28.5,0002.1,0029.24,0018.71,0017.43
2023-09-06 19:37:00,SystemResetWarning,0832.8,5.00,000.00,027.7,025.1,000.0,036.1,029.1,28.8,0002.1,0029.50,0018.63,0017.38
2023-09-06 19:38:00,SystemResetWarning,0832.8,5.00,000.00,027.7,025.5,000.0,036.1,029.3,28.7,0002.2,0029.12,0018.52,0017.29
2023-09-06 19:39:00,SystemResetWarning,0832.8,5.00,000.00,027.7,025.9,000.0,036.1,029.4,28.8,0002.2,0030.16,0018.43,0017.16
2023-09-06 19:40:00,SystemResetWarning,0832.9,5.00,000.00,027.8,026.2,000.0,036.1,029.5,28.5,0002.1,0029.87,0018.34,0017.06
2023-09-06 19:41:00,SystemResetWarning,0832.8,5.00,000.00,027.8,026.5,000.0,036.1,029.5,28.3,0002.0,0029.75,0018.27,0017.00
2023-09-06 19:42:00,SystemResetWarning,0832.8,5.00,000.00,027.9,026.7,000.0,036.2,029.6,28.5,0002.1,0029.31,0018.16,0016.90
2023-09-06 19:43:00,SystemResetWarning,0832.8,5.01,000.00,027.9,026.9,000.0,036.2,029.7,28.3,0002.2,0029.71,0018.12,0016.86
2023-09-06 19:44:00,SystemResetWarning,0832.8,4.99,000.00,027.9,026.4,000.0,036.2,029.6,28.1,0002.1,0030.41,0018.11,0016.83
2023-09-06 19:45:00,SystemResetWarning,0832.9,4.99,000.00,027.9,025.0,000.0,036.1,029.1,28.1,0002.3,0030.90,0017.99,0016.73
2023-09-06 19:46:00,SystemResetWarning,0832.7,5.01,000.00,027.7,024.3,000.0,036.1,028.9,28.7,0002.4,0031.69,0017.88,0016.65
2023-09-06 19:47:00,SystemResetWarning,0832.7,5.00,000.00,027.7,024.5,000.0,036.0,029.0,28.8,0002.4,0032.01,0017.79,0016.56
2023-09-06 19:48:00,SystemResetWarning,0832.7,5.00,000.00,027.7,024.8,000.0,036.0,029.1,29.2,0002.5,0031.06,0017.64,0016.41
2023-09-06 19:49:00,SystemResetWarning,0832.7,5.01,000.00,027.7,025.3,000.0,036.0,029.2,28.5,0002.5,0030.83,0017.55,0016.31
2023-09-06 19:50:00,SystemResetWarning,0832.7,5.01,000.00,027.7,025.7,000.0,036.1,029.3,28.5,0002.4,0029.27,0017.41,0016.20
2023-09-06 19:51:00,SystemResetWarning,0832.7,5.00,000.00,027.7,026.0,000.0,036.1,029.4,28.6,0002.5,0028.40,0017.27,0016.12
2023-09-06 19:52:00,SystemResetWarning,0832.7,5.00,000.00,027.8,026.3,000.0,036.1,029.5,28.4,0002.4,0028.23,0017.15,0015.98
2023-09-06 19:53:00,SystemResetWarning,0832.7,5.00,000.00,027.8,026.6,000.0,036.1,029.6,28.4,0002.2,0028.90,0017.03,0015.86
2023-09-06 19:54:00,SystemResetWarning,0832.7,4.99,000.00,027.9,026.8,000.0,036.1,029.7,28.5,0002.2,0028.62,0016.91,0015.70
2023-09-06 19:55:00,SystemResetWarning,0832.7,4.99,000.00,028.0,027.0,000.0,036.2,029.7,29.1,0002.3,0028.60,0016.72,0015.55
2023-09-06 19:56:00,SystemResetWarning,0832.7,4.99,000.00,028.0,026.0,000.0,036.2,029.5,29.1,0002.4,0028.31,0016.55,0015.40
2023-09-06 19:57:00,SystemResetWarning,0832.7,5.00,000.00,027.8,024.6,000.0,036.1,029.1,28.9,0002.4,0028.41,0016.45,0015.25
2023-09-06 19:58:00,SystemResetWarning,0832.6,5.01,000.00,027.8,024.3,000.0,036.0,029.1,28.6,0002.6,0027.52,0016.28,0015.09
2023-09-06 19:59:00,SystemResetWarning,0832.6,5.02,000.00,027.7,024.5,000.0,036.0,029.1,29.0,0002.6,0027.78,0016.18,0014.96
